Location: *
(48.8667°N, 2.3331°E)
Time: 09:04:30
(UTC+00:00)

Cosmos 2061 Rocket - Visible Passes

Search period start: 13 August 2020 00:00
Search period end: 23 August 2020 00:00
Orbit: 965 x 1013 km, 82.9° (Epoch: 12 August)

Date Brightness Start Highest point End Pass type
(mag) Time Alt. Az. Time Alt. Az. Time Alt. Az.
13 Aug 6.5 00:41:48 10° WNW 00:43:04 11° NW 00:44:21 10° NW visible
13 Aug 4.2 21:37:27 35° SE 21:39:41 51° E 21:45:39 10° NNE visible
13 Aug 5.4 23:22:23 20° WSW 23:25:39 31° WNW 23:31:04 10° N visible
14 Aug 5.6 20:21:39 13° ESE 20:24:20 16° ENE 20:27:59 10° NE visible
14 Aug 3.9 22:06:35 39° S 22:09:05 90° WSW 22:15:21 10° N visible
14 Aug 6.1 23:51:37 10° WSW 23:55:43 18° WNW 23:59:51 10° NNW visible
15 Aug 4.9 20:50:45 22° ESE 20:53:21 30° E 20:58:36 10° NNE visible
15 Aug 4.6 22:35:41 28° SW 22:38:44 51° WNW 22:44:46 10° N visible
16 Aug 4.1 21:19:50 31° SSE 21:22:34 54° E 21:28:36 10° NNE visible
16 Aug 5.5 23:04:46 16° WSW 23:08:36 29° WNW 23:13:57 10° N visible
17 Aug 5.5 20:03:58 12° ESE 20:07:12 17° ENE 20:11:03 10° NE visible
17 Aug 3.9 21:48:54 32° SSW 21:52:01 85° W 21:58:16 10° N visible
17 Aug 6.2 23:34:48 10° W 23:38:42 17° WNW 23:42:38 10° NNW visible
18 Aug 4.8 20:32:59 20° SE 20:36:13 32° E 20:41:35 10° NNE visible
18 Aug 4.7 22:17:55 22° SW 22:21:40 48° WNW 22:27:41 10° N visible
19 Aug 4.1 21:01:58 25° SSE 21:05:28 57° E 21:11:32 10° NNE visible
19 Aug 5.6 22:46:54 12° WSW 22:51:33 28° WNW 22:56:49 10° N visible
20 Aug 5.4 19:46:00 10° ESE 19:50:03 19° E 19:54:07 10° NE visible
20 Aug 4.0 21:30:55 23° SSW 21:34:56 81° W 21:41:11 10° N visible
20 Aug 6.3 23:17:59 10° W 23:21:41 16° WNW 23:25:27 10° NNW visible
21 Aug 4.7 20:14:53 16° SE 20:19:06 33° E 20:24:34 10° NNE visible
21 Aug 4.9 21:59:48 15° SW 22:04:37 46° WNW 22:10:35 10° N visible
22 Aug 4.0 20:43:43 18° SSE 20:48:22 61° E 20:54:29 10° NNE visible
22 Aug 5.8 22:29:25 10° WSW 22:34:32 26° WNW 22:39:42 10° N visible
